Weather in Filimonovo

Russia / Krasnoyarsk Krai     56°12′22″N   95°27′26″E
temp.,
°C
wind,
m/s
gust,
m/s
humid.,
%
clouds,
%
prec.,
mm/h
press.,
hPa
HPBL,
m
15 may, sat
sat1501:00+3wsw398144 0.1 1018255
04:00+3wsw4108199 0.0 1018237
07:00+6wsw51365100 0.0 1018687
10:00+9wsw71252100 0.0 10151152
13:00+12wsw112056100 0.1 10131314
16:00+18w101647100 0.0 10112023
19:00+16wsw81456100 0.0 10111185
22:00+13w61371100 2.0 1010750
16 may, sun
sun1601:00+9n5994100 7.4 1012543
04:00+7nnw51084100 0.5 1014544
07:00+6nnw3578100 0.6 1016501
10:00+9nnw3457100 0.0 1016824
13:00+11n2452100 0.0 10151159
16:00+13nne4349100 0.0 1012926
19:00+8nnw2375100 2.4 1012511
22:00+7ne0180100 2.4 1011181
17 may, mon
mon1701:00+5nnw3580100 2.4 1012110
04:00+3nnw23755 0.0 101363
07:00+5nnw34615 0.0 1014297
10:00+9nnw344596 0.0 10151103
13:00+11nnw353756 0.0 10142060
16:00+13nnw3533100 0.0 10132246
19:00+11nw474065 0.0 1014700
22:00+7nw235481 0.0 101542
18 may, tue
tue1801:00+5w1153100 0.0 101410
04:00+5sw2253100 0.0 101312
07:00+8ssw1250100 0.0 1012189
10:00+11s3447100 0.0 10091468
13:00+10ssw3475100 0.5 10061032
16:00+8e3494100 3.4 1005258
19:00+7ene4695100 6.6 1004338
22:00+6ne3693100 0.1 1004318
19 may, wed
wed1901:00+6n2491100 0.1 1005167
04:00+6nne2291100 0.0 100578
07:00+7nnw2382100 0.0 1006291
10:00+10wsw2263100 0.2 1005783
13:00+13wsw3349100 0.4 10041745
16:00+12wnw2355100 0.9 10031015
19:00+11ne2456100 1.5 1003565
22:00+7ne41073100 0.0 1004313